Wind_Speed
4 4 4 4 4 7 7 5 5 4 7 8 6 7 12 6 1 3 3 9 7 9 10 13 14 17 26 31 28 29 31 36 37 35 32 29 28 29 32 33 32 29 26 23
5 3 5 4 6 8 4 3 4 3 6 6 0 3 8 10 7 6 7 11 9 8 8 6 8 10 14 22 27 29 31 33 36 34 35 32 29 28 29 31 31 31 28 26
4 2 4 3 7 6 5 5 7 6 9 2 4 3 3 4 5 6 6 9 9 6 12 9 8 10 10 10 14 22 28 27 31 35 34 31 29 25 26 28 28 30 28 28
3 2 2 7 4 5 5 4 6 2 1 4 3 3 2 3 3 4 6 5 6 7 5 9 15 8 14 18 17 15 12 13 18 30 31 34 29 27 28 29 27 27 28 27
5 4 5 2 4 5 6 5 4 4 4 4 3 1 9 1 4 3 2 4 4 6 8 7 8 6 4 6 10 15 21 24 24 22 24 35 36 28 25 25 30 29 30 28
3 4 6 7 3 5 4 2 6 9 8 9 4 3 3 4 2 2 1 1 2 4 6 10 11 12 11 9 11 10 13 19 17 24 30 25 32 38 33 25 27 29 32 31
3 3 6 7 6 1 5 6 11 11 14 15 5 4 6 3 2 2 0 1 0 4 7 9 13 15 13 9 8 5 5 6 15 20 21 24 32 34 33 31 29 32 32 23
3 3 3 10 4 7 6 6 14 13 14 15 10 5 2 2 4 4 1 1 3 5 4 6 7 7 9 8 7 3 2 6 8 14 12 12 15 17 20 24 23 21 19 11
7 6 3 17 3 11 12 18 16 16 14 10 8 9 11 9 7 7 4 3 2 3 3 3 4 6 7 7 7 7 2 4 6 7 8 8 6 9 10 7 8 6 1 5
3 3 4 9 7 9 14 13 17 18 17 15 15 15 13 11 11 10 6 5 3 3 3 3 2 3 4 8 12 11 8 9 3 3 6 9 13 13 14 14 13 11 9 8
1 2 2 6 10 11 14 13 13 19 19 19 18 18 15 12 12 11 9 8 6 4 6 3 4 4 4 4 6 6 7 9 10 7 6 7 12 12 10 9 9 10 9 10
5 11 5 7 9 10 10 14 16 16 18 21 21 19 16 14 15 14 12 11 9 5 6 2 3 4 4 5 6 7 7 9 6 6 7 8 9 12 13 13 14 13 11 8
4 13 6 9 8 8 9 10 11 14 17 20 18 18 18 18 16 13 13 13 10 6 6 5 3 5 7 6 7 8 8 9 10 9 9 9 10 10 14 14 12 13 9 8
4 7 5 9 9 7 8 11 12 10 10 13 14 15 18 16 15 11 12 11 11 8 6 5 7 7 6 7 8 9 10 9 10 10 10 10 11 10 10 9 12 12 15 16
21 13 14 12 14 8 8 14 14 16 16 13 13 15 15 14 11 7 9 13 8 7 5 7 6 9 7 9 9 10 11 11 11 11 11 11 11 11 11 12 14 15 16 17
19 17 16 14 10 10 8 12 18 18 16 13 11 11 9 11 10 10 12 12 8 11 9 9 8 9 10 11 11 10 11 12 13 14 15 15 15 15 15 14 14 14 14 13
15 11 14 16 16 13 11 11 13 14 14 11 9 6 7 9 9 12 12 9 7 8 8 8 10 11 13 12 10 10 13 15 15 16 15 14 13 13 14 15 15 15 14 12
18 17 23 17 18 13 14 14 15 15 14 8 8 10 11 12 10 14 14 14 12 10 10 11 12 15 15 11 11 11 11 11 14 13 12 11 12 13 14 14 14 14 13 11
28 24 20 16 18 17 14 13 10 14 12 11 15 15 12 10 10 13 16 16 12 12 12 14 13 14 13 11 13 12 11 13 12 10 10 10 11 12 13 12 12 12 10 9
23 23 25 25 21 20 14 10 11 14 12 13 19 16 16 14 11 13 15 14 11 10 12 12 13 14 15 14 12 10 14 15 12 10 10 8 9 9 8 13 13 13 13 12
17 20 22 22 16 13 12 8 10 12 14 15 19 18 15 15 13 13 18 17 16 14 12 10 11 12 17 17 15 10 11 14 13 11 9 9 8 9 9 12 13 13 15 15
10 9 7 11 12 16 12 8 8 9 14 15 17 16 15 15 16 15 14 15 14 13 13 14 13 13 13 19 18 14 14 13 14 15 14 11 13 16 13 12 14 15 12 13
8 10 8 11 16 19 15 12 11 9 12 13 15 14 14 12 13 16 17 18 16 16 14 18 15 13 12 15 18 18 18 18 18 18 18 16 12 17 20 17 15 13 14 15
10 4 9 10 15 19 17 13 13 12 11 11 12 12 11 13 15 17 16 12 16 17 18 18 19 17 15 16 17 18 17 18 19 19 18 18 17 16 16 22 22 20 19 19
11 10 1 8 13 19 18 16 16 17 16 15 13 13 13 14 11 6 13 14 16 18 18 18 22 21 18 17 18 21 21 19 18 18 17 16 16 16 14 13 16 20 21 21
10 6 7 2 10 16 18 18 18 20 20 19 16 18 18 18 15 11 10 12 15 19 21 20 22 24 23 22 21 21 20 21 19 17 16 16 15 14 14 13 14 18 21 21
8 8 6 6 5 12 16 16 19 21 24 24 21 18 17 20 21 19 17 18 18 19 19 19 21 23 24 25 25 24 24 24 24 23 22 20 18 17 17 17 15 15 16 20
Wind_Direction
195 203 184 214 196 170 193 176 167 224 206 266 242 205 188 197 186 311 15 289 292 289 270 246 243 240 231 235 235 238 241 240 242 246 246 248 252 252 248 244 245 250 252 252
186 219 194 183 206 199 197 171 271 184 258 234 356 155 154 199 209 274 295 286 288 270 265 252 236 234 233 228 231 239 238 237 244 247 246 247 254 256 251 249 250 250 248 249
229 14 354 320 212 187 188 189 154 181 228 122 126 170 188 170 233 248 275 273 274 268 247 232 253 276 269 255 232 231 237 241 240 244 246 245 250 254 250 250 252 248 246 246
172 54 228 237 277 233 175 182 216 183 181 170 175 188 253 287 211 278 304 294 267 267 253 239 246 258 272 266 265 268 261 245 243 240 240 240 238 249 252 251 249 250 243 242
143 184 277 268 205 153 182 222 203 176 138 138 136 2 54 239 252 274 283 302 325 264 270 253 255 241 266 261 260 251 259 255 258 252 246 246 248 251 252 257 246 246 242 244
152 152 206 238 291 164 142 317 205 183 167 157 150 57 256 71 180 273 296 250 335 315 278 263 251 248 253 255 258 260 269 266 247 242 243 245 236 233 251 270 255 248 244 243
160 179 280 245 232 323 85 235 175 189 178 169 184 191 131 29 194 195 212 274 308 295 294 284 274 253 250 261 251 272 271 279 255 258 253 243 235 226 237 267 273 250 243 239
117 102 227 172 95 148 208 160 174 180 186 199 224 246 245 193 196 215 220 270 304 327 301 299 291 237 226 233 227 204 97 26 267 230 199 207 210 229 238 245 241 208 220 221
174 205 241 180 178 203 177 175 188 192 195 207 228 249 264 270 244 222 244 241 256 334 299 299 308 223 200 200 201 209 205 68 96 125 167 192 198 203 187 187 163 162 33 118
133 257 235 198 204 194 189 196 199 203 203 208 217 227 244 252 241 235 245 240 268 313 279 245 246 247 231 195 220 229 234 173 168 163 178 168 170 175 173 136 136 150 164 209
334 286 175 193 198 200 206 217 224 221 223 227 234 239 243 251 243 233 234 234 244 299 308 233 204 206 224 201 188 179 178 205 201 215 176 172 171 171 183 195 203 214 194 176
209 186 157 173 183 202 223 233 242 244 248 245 243 245 246 246 252 239 226 214 222 236 287 284 192 165 158 167 185 184 188 177 190 185 172 161 158 157 152 155 156 151 149 156
158 163 138 155 178 209 233 241 253 263 264 260 258 254 243 247 243 244 221 209 209 242 264 268 192 162 159 160 165 163 161 163 167 168 173 170 164 170 167 157 157 159 159 171
110 164 190 198 207 226 249 252 253 252 247 244 250 255 249 247 248 237 228 229 210 210 248 240 200 168 166 164 169 174 175 184 186 176 178 175 175 171 169 168 165 162 147 138
268 266 257 242 218 232 260 250 242 245 249 259 258 256 255 258 237 212 230 215 205 196 230 200 191 178 165 163 160 159 163 160 154 159 155 155 157 152 148 145 151 148 143 140
252 257 232 228 217 231 249 256 243 249 252 253 260 261 247 250 232 213 194 220 218 209 208 196 172 160 147 135 144 152 153 150 145 144 142 140 138 138 135 138 139 136 140 145
239 223 227 226 232 241 263 259 252 254 244 246 256 221 199 199 190 194 187 184 187 210 213 192 182 173 162 150 146 145 142 140 137 135 134 131 133 140 142 141 137 131 133 139
255 274 255 249 245 257 259 245 249 247 241 223 214 191 197 198 206 199 192 187 189 192 183 179 171 166 164 161 161 169 171 167 157 151 153 153 148 145 144 141 144 141 138 152
258 261 237 252 253 262 262 247 244 246 230 224 205 206 210 215 213 208 197 195 198 191 183 178 175 176 171 169 171 172 170 171 171 171 172 173 180 184 180 176 169 165 155 146
238 241 247 261 262 252 237 215 234 240 232 210 202 212 215 210 209 207 206 210 215 174 176 185 195 193 189 186 180 188 198 191 182 180 180 187 197 198 202 196 199 197 193 186
232 238 244 252 231 210 184 198 238 244 214 198 203 215 217 215 212 211 210 212 189 182 186 197 201 195 198 197 192 184 178 193 195 193 202 220 219 214 207 205 207 210 215 217
136 151 178 203 200 180 181 197 221 216 212 211 207 212 215 215 212 210 223 214 192 198 200 203 196 193 195 197 202 208 208 204 208 218 226 240 237 226 224 227 229 231 239 236
144 161 175 189 193 194 188 202 205 212 205 213 220 218 222 248 238 221 217 207 203 202 204 196 184 185 193 204 213 221 225 226 229 233 244 257 259 229 228 229 237 243 244 242
51 160 185 193 203 200 204 203 207 200 191 195 216 223 235 241 239 239 240 224 207 207 211 209 211 213 216 220 227 231 233 232 234 235 245 248 243 238 239 234 237 243 249 251
6 27 164 191 202 206 215 219 207 191 193 209 219 210 221 232 233 235 229 221 219 222 223 225 221 225 234 228 233 240 243 244 243 240 237 234 233 236 238 244 252 252 252 254
327 345 7 274 227 223 230 230 228 219 218 221 216 224 233 239 236 222 211 214 219 226 233 233 228 228 232 235 239 241 242 240 241 241 241 242 245 249 250 252 255 260 259 248
302 308 319 317 280 241 236 239 240 236 234 234 233 232 238 242 242 239 226 218 219 223 229 231 227 229 236 242 249 249 248 247 247 247 248 249 253 254 249 243 261 268 254 243
Height
1508 1506 1507 1506 1508 1517 1519 1520 1523 1517 1521 1504 1501 1502 1505 1508 1509 1508 1506 1508 1503 1499 1502 1504 1504 1505 1508 1510 1513 1517 1520 1525 1529 1534 1537 1541 1543 1546 1549 1551 1554 1556 1559 1561
1508 1503 1502 1504 1503 1508 1512 1515 1513 1512 1512 1496 1499 1501 1505 1507 1506 1506 1505 1507 1505 1502 1501 1502 1503 1506 1507 1507 1510 1514 1516 1520 1524 1528 1532 1535 1539 1541 1544 1547 1549 1552 1554 1556
1517 1508 1506 1513 1501 1501 1503 1501 1504 1514 1499 1495 1498 1500 1500 1502 1503 1503 1504 1504 1502 1500 1501 1503 1504 1505 1506 1506 1508 1510 1511 1515 1518 1520 1526 1530 1533 1536 1539 1542 1545 1547 1549 1552
1520 1513 1526 1500 1491 1491 1493 1493 1495 1493 1492 1495 1495 1498 1499 1501 1502 1503 1503 1501 1501 1500 1500 1500 1503 1503 1503 1503 1505 1505 1508 1510 1512 1516 1518 1521 1525 1531 1535 1537 1539 1542 1544 1547
1521 1527 1513 1491 1488 1492 1491 1495 1490 1491 1493 1495 1496 1498 1500 1499 1500 1501 1501 1501 1499 1499 1499 1500 1502 1502 1500 1500 1502 1502 1502 1504 1507 1510 1511 1513 1517 1526 1529 1531 1533 1535 1538 1540
1524 1516 1520 1497 1484 1482 1484 1504 1486 1489 1491 1494 1497 1503 1499 1498 1498 1498 1497 1499 1498 1498 1499 1499 1501 1501 1502 1502 1501 1499 1498 1498 1497 1503 1504 1506 1510 1516 1520 1525 1527 1529 1532 1533
1514 1511 1503 1484 1481 1481 1502 1503 1484 1486 1489 1492 1494 1494 1496 1497 1496 1497 1497 1499 1498 1497 1497 1496 1496 1496 1497 1498 1500 1499 1498 1497 1495 1494 1497 1501 1506 1510 1515 1520 1520 1522 1525 1526
1510 1508 1500 1475 1481 1489 1483 1480 1482 1484 1486 1488 1490 1492 1494 1495 1496 1496 1495 1495 1495 1496 1496 1494 1494 1494 1495 1497 1499 1499 1498 1495 1491 1493 1496 1499 1503 1509 1513 1511 1515 1514 1519 1523
1485 1488 1472 1471 1473 1474 1475 1477 1480 1482 1485 1487 1489 1490 1491 1492 1493 1494 1494 1495 1496 1495 1495 1494 1494 1495 1495 1496 1498 1499 1498 1497 1498 1497 1496 1499 1502 1505 1509 1513 1513 1518 1511 1519
1474 1470 1470 1471 1472 1473 1474 1476 1478 1480 1482 1484 1485 1487 1488 1489 1490 1491 1493 1494 1494 1494 1495 1493 1492 1493 1494 1493 1494 1497 1497 1498 1499 1501 1502 1502 1505 1508 1512 1507 1510 1514 1514 1518
1472 1468 1470 1469 1469 1471 1474 1476 1477 1479 1480 1481 1483 1485 1486 1488 1488 1490 1492 1493 1493 1494 1494 1493 1493 1493 1493 1494 1495 1496 1497 1497 1498 1500 1501 1503 1505 1507 1507 1510 1513 1517 1518 1519
1472 1462 1464 1466 1468 1470 1472 1474 1476 1477 1478 1478 1479 1481 1484 1485 1486 1487 1490 1492 1494 1495 1496 1494 1493 1492 1492 1494 1495 1496 1497 1497 1499 1500 1502 1504 1506 1509 1510 1512 1513 1516 1520 1522
1460 1462 1464 1465 1468 1470 1471 1473 1474 1475 1475 1476 1478 1479 1480 1482 1483 1485 1487 1490 1493 1494 1494 1494 1494 1492 1493 1494 1495 1496 1497 1499 1500 1502 1504 1505 1507 1509 1512 1515 1517 1518 1519 1524
1461 1462 1464 1465 1467 1469 1470 1471 1472 1472 1472 1473 1474 1476 1477 1479 1481 1483 1486 1489 1491 1492 1493 1493 1493 1493 1493 1494 1495 1497 1498 1500 1501 1502 1503 1505 1508 1510 1512 1513 1515 1520 1522 1522
1460 1462 1463 1463 1465 1466 1467 1467 1468 1469 1470 1472 1472 1474 1476 1477 1480 1482 1484 1487 1489 1491 1493 1494 1494 1494 1494 1495 1496 1498 1500 1501 1501 1503 1504 1506 1508 1510 1512 1514 1517 1519 1522 1525
1455 1458 1458 1461 1462 1463 1463 1463 1465 1466 1467 1469 1470 1472 1475 1476 1478 1481 1482 1485 1488 1491 1494 1494 1494 1493 1495 1496 1497 1499 1501 1503 1504 1505 1507 1509 1511 1512 1513 1517 1519 1521 1523 1528
1452 1454 1456 1457 1457 1458 1459 1460 1461 1462 1464 1466 1468 1470 1473 1475 1477 1480 1482 1484 1487 1489 1491 1491 1492 1494 1497 1498 1500 1502 1504 1505 1506 1508 1511 1513 1514 1516 1517 1518 1520 1521 1525 1529
1448 1449 1450 1452 1453 1454 1455 1456 1457 1459 1461 1465 1467 1469 1471 1473 1475 1478 1480 1483 1485 1487 1489 1491 1493 1495 1497 1500 1501 1504 1506 1508 1508 1510 1512 1514 1517 1519 1520 1521 1522 1524 1525 1528
1440 1443 1446 1448 1450 1451 1452 1453 1455 1457 1460 1463 1465 1468 1470 1472 1475 1476 1479 1482 1483 1485 1488 1490 1493 1496 1497 1500 1502 1504 1507 1509 1511 1511 1513 1515 1518 1519 1521 1523 1523 1526 1526 1527
1432 1436 1439 1442 1444 1446 1448 1450 1452 1454 1457 1459 1463 1466 1468 1471 1473 1475 1477 1479 1482 1484 1487 1490 1491 1494 1496 1499 1502 1504 1507 1509 1510 1511 1514 1516 1517 1519 1520 1521 1524 1526 1527 1529
1427 1430 1433 1437 1439 1441 1445 1448 1449 1450 1453 1456 1459 1463 1466 1469 1471 1473 1476 1478 1480 1483 1486 1488 1490 1491 1494 1497 1500 1503 1505 1507 1509 1511 1512 1514 1516 1517 1519 1521 1523 1524 1525 1527
1425 1427 1430 1433 1436 1439 1442 1445 1447 1449 1451 1454 1457 1460 1463 1466 1468 1471 1473 1476 1480 1482 1485 1487 1488 1490 1493 1496 1498 1501 1504 1506 1508 1509 1512 1513 1515 1517 1519 1520 1521 1521 1522 1524
1425 1427 1429 1431 1434 1438 1441 1443 1445 1447 1450 1452 1455 1457 1460 1462 1465 1467 1469 1473 1477 1480 1482 1485 1487 1489 1492 1494 1497 1499 1502 1504 1506 1507 1509 1511 1512 1512 1515 1516 1518 1519 1521 1522
1427 1427 1428 1430 1433 1437 1440 1442 1444 1446 1449 1452 1454 1456 1459 1461 1463 1464 1467 1470 1473 1476 1479 1482 1485 1488 1490 1492 1495 1497 1499 1500 1502 1504 1506 1507 1508 1509 1510 1510 1511 1512 1514 1514
1430 1428 1428 1429 1431 1434 1437 1440 1442 1444 1446 1449 1452 1455 1457 1459 1460 1462 1464 1467 1470 1473 1476 1478 1481 1484 1486 1488 1490 1492 1494 1496 1497 1499 1501 1502 1503 1504 1505 1505 1506 1507 1507 1508
1429 1430 1429 1429 1430 1432 1434 1437 1439 1441 1443 1446 1449 1451 1454 1456 1457 1460 1461 1464 1466 1469 1471 1474 1476 1479 1481 1483 1485 1487 1488 1490 1492 1493 1495 1496 1497 1498 1499 1500 1501 1501 1502 1503
1427 1427 1427 1428 1428 1429 1431 1433 1435 1437 1439 1442 1444 1447 1449 1451 1453 1456 1458 1461 1463 1465 1467 1469 1471 1473 1475 1477 1479 1481 1482 1484 1486 1488 1490 1491 1492 1492 1493 1494 1494 1494 1494 1496